STARLINK-32225, 62036

Orbit data source: Space-Track

STARLINK-32225, 62036 is a payload satellite owned by SpaceX/Seattle (US) in LEO that was launched on Thu, 21 Nov 2024 UTC via an FALCON 9 launch vehicle from the Air Force Eastern Test Range (AFETR). Payloads include a variety of satellites, spacecraft, and rockets equipped with specific instruments for various scientific and technological missions. These include communications satellites like Starlink; space stations such as the ISS; scientific satellites like the Hubble; Earth observation satellites from companies like Planet Labs, Umbra, and HawkEye 360; GPS; miniature CubeSats for education and research; and military/defense satellites.

Loading next visibility...
STARLINK-32225 details
Identifier
62036, 2024-216E
Orbit
LEO
Last TLE update9 hours ago
Origin
Flag of USSpaceX/Seattle (US)
ManufacturerSpaceX/Seattle
MissionOperational spacecraft
Bus & MotorSTARLINK V2M, Unknown motor
Mass730 kg wet, ~700 kg dry
Launch date (UTC)
2024-11-21 (1 month ago)
Launch vehicle
FALCON 9
Launch site
Air Force Eastern Test Range (AFETR)
Object type
Payload
Rocket body
Debris
Shape & HBRUnknown
Radar Cross SectionLarge (>1 m²)

Expand to show TLE details & history

TLE from 9 hours ago
0 STARLINK-32225
1 62036U 24216E   24361.03427582  .00000899  00000-0  28815-4 0  9993
2 62036  43.0015 234.8514 0001788 249.1802 110.8863 15.40670234  6611
Epoch: 2024-12-26T00:49Z
Definitive object data (Epoch: 2024-12-26T00:49:21.43Z)
Latitude-0.00004°
Longitude127.4926°
Altitude444.339 km
Speed7.647 km/s
True Right ascension15h 39m 24s
True Declination0° 00' 00"
Sunlit
Object was in daylight at TLE epoch
Visualization TLE readout
Latitude17.72634°
Longitude145.15256°
Altitude444.168 km
Speed7.649 km/s
Apparent Right ascension18h 50m 30s
Apparent Declination-12° 12' 02"
Sunlit
Object is in daylight
Visualization observer readout
Local Sidereal Time09:37:28
Azimuth64.825° ENE
Elevation-44.024°
Doppler factor1
Orbital elements
Apogee altitude447.306 km
Perigee altitude444.866 km
Semi-major axis6,824.223 km
Eccentricity0.0001788
Inclination43.0015°
RAAN234.8514°
Arg. of periapsis249.1802°
True anomaly110.90544°
Mean anomaly110.8863°
Eccentric anomaly110.89587°
Mean motion3.85002 °/min
BSTAR0.000028815
Orbital period93.51 mins
Loading maneuver chart data...
Loading historical data...
Loading historical data...
Loading historical data...
Loading historical data...
Loading historical data...
Loading historical data...
Loading historical data...

STARLINK-32225 Visibility forecast

Observer location: undefined°, undefined

Span
Click to sort rows by Start time (UTC) header in descending order
Start Az.
Max El. time (UTC)
Max El. Az.
Max El.
End time (UTC)
End Az.
5 mins2024-12-26 19:44:19.261Z235.155° WSW2024-12-26 19:46:19.261Z182.724° SSW41.748°2024-12-26 19:49:19.261Z76.776° E
5 mins2024-12-26 21:22:19.261Z281.888° WNW2024-12-26 21:24:19.261Z328.269° NNW36.977°2024-12-26 21:27:19.261Z68.286° E
5 mins2024-12-26 23:01:19.261Z298.12° NW2024-12-26 23:03:19.261Z42.703° NE40.9°2024-12-26 23:06:19.261Z94.21° ESE
4 mins2024-12-27 00:39:19.261Z262.353° W2024-12-27 00:41:19.261Z194.767° SSW30.998°2024-12-27 00:43:19.261Z147° SSE
|